Wind_Speed
6 6 6 6 5 5 5 5 4 4 4 4 3 3 3 2 2 2 2 2 2 1 1 1 1 1 1 1 1 1 2 2 2 2 2 3 3 3 3 3 3 4 4
6 5 5 5 5 5 5 4 4 4 4 3 3 3 3 2 2 1 1 1 0 0 1 1 1 2 2 2 3 3 3 3 3 4 4 5 5 5 5 5 5 6 6
5 5 5 5 5 4 4 4 4 4 3 3 3 3 3 2 2 2 2 2 2 2 2 3 3 4 4 4 4 4 4 5 5 5 6 6 6 6 7 7 7 8 8
5 5 5 5 5 5 4 4 4 4 4 3 3 3 3 4 3 3 3 3 3 3 4 4 5 5 5 5 5 6 6 6 7 7 7 7 7 7 8 9 9 9 10
4 5 5 5 5 5 5 4 4 5 5 4 4 4 4 5 4 4 5 5 5 5 5 5 6 6 7 7 7 7 8 8 8 8 8 8 9 9 9 10 10 10 11
3 4 5 5 5 5 5 5 5 5 6 6 5 5 6 6 6 6 6 7 7 7 7 7 7 7 8 9 9 9 10 10 10 10 10 10 10 11 11 11 12 12 12
3 4 4 5 5 6 6 5 5 6 6 6 7 7 7 7 8 8 8 9 9 9 9 9 9 10 10 10 10 11 11 12 12 12 12 12 13 13 13 13 13 13 14
4 4 5 5 5 6 6 6 6 7 7 8 8 8 9 9 10 10 11 11 11 11 11 11 11 11 11 12 12 12 13 13 14 14 14 15 14 14 15 15 15 15 16
5 5 5 5 6 6 7 7 7 7 7 8 9 9 9 10 11 11 12 12 12 12 12 12 12 13 13 14 14 14 14 14 15 15 16 16 17 17 17 17 17 18 18
5 5 5 6 6 6 7 7 8 9 9 9 10 10 11 11 12 13 13 13 13 14 14 14 14 14 14 14 14 15 16 16 16 17 17 18 18 18 18 18 19 19 19
4 5 5 6 6 6 7 7 8 9 10 10 10 11 11 12 13 14 14 14 15 15 15 15 15 16 16 16 16 17 17 17 18 19 19 20 20 20 20 20 21 21 21
5 6 6 7 7 8 8 9 9 10 10 11 11 12 13 13 14 14 15 15 16 16 16 17 17 18 18 18 19 19 19 20 20 21 21 21 21 21 21 22 22 23 24
6 6 6 7 8 9 9 9 10 10 11 12 12 13 13 14 15 15 16 16 17 17 17 18 19 19 19 19 20 20 21 22 22 22 22 22 23 23 23 24 24 24 25
7 7 7 8 8 8 9 10 11 11 12 12 13 13 14 14 15 16 17 18 18 18 18 19 20 20 21 21 21 22 23 23 24 23 23 24 24 24 25 25 25 26 26
8 8 8 8 9 9 10 11 12 13 13 14 14 14 15 15 16 17 17 18 19 19 19 20 21 21 22 23 23 24 23 22 23 23 24 25 26 25 25 26 27 27 28
8 9 9 10 10 11 11 12 13 14 14 15 15 16 16 17 17 18 18 18 18 19 19 20 21 22 23 24 25 24 24 24 24 24 24 25 25 26 27 27 27 28 29
11 11 11 11 12 12 13 13 14 15 15 15 16 16 17 18 18 18 18 18 19 19 20 21 22 24 25 25 24 25 25 25 25 25 25 26 26 26 27 28 29 29 29
12 12 13 13 13 13 14 15 15 16 16 16 16 17 18 18 18 19 19 19 20 20 21 21 22 24 24 25 25 25 25 25 25 25 25 27 27 28 29 29 29 30 31
14 14 15 14 15 15 15 15 15 15 16 17 17 17 18 18 19 19 20 20 21 21 22 23 23 24 24 24 25 25 25 25 25 25 27 27 28 29 30 30 30 30 31
14 15 15 16 16 16 16 16 16 16 16 17 18 18 18 19 19 20 20 20 21 22 23 23 23 24 24 24 25 25 25 25 26 27 27 28 29 29 30 31 32 32 33
14 15 16 16 17 17 17 18 18 18 18 18 19 19 19 19 20 21 21 21 22 23 23 23 24 24 24 25 25 25 26 26 27 28 28 29 30 31 31 32 32 33 34
16 16 16 16 16 17 18 19 19 20 20 19 20 20 20 20 21 21 22 23 23 24 24 24 24 25 25 25 26 26 27 27 28 29 30 31 31 32 33 33 34 34 35
17 17 17 18 18 18 19 19 20 19 20 20 21 21 21 22 23 23 23 24 24 25 25 25 25 25 26 27 27 28 28 28 29 30 31 31 32 32 33 33 33 34 35
19 19 18 18 18 19 20 20 21 21 20 20 20 21 22 22 23 23 24 25 25 26 27 27 27 27 28 28 29 29 29 30 31 31 32 32 33 33 33 33 33 34 34
20 20 20 19 19 20 20 20 21 21 21 21 22 22 23 23 24 24 25 26 27 28 29 29 29 29 29 30 30 31 31 32 33 33 34 34 34 34 34 34 34 34 34
20 21 21 21 21 21 21 21 21 21 21 22 23 23 23 24 24 25 26 27 28 29 30 30 30 31 31 31 32 33 33 34 34 34 34 35 35 35 34 34 34 35 35
Wind_Direction
153 147 147 148 144 149 152 149 159 153 147 147 151 158 159 146 147 142 128 117 108 93 51 46 34 33 17 3 351 335 334 315 280 274 276 278 273 271 273 271 269 270 270
162 160 159 155 152 154 161 165 168 171 172 169 171 168 171 163 165 187 196 197 206 292 308 319 317 321 321 312 315 311 311 309 297 286 281 278 274 271 271 272 268 273 274
166 169 171 174 173 173 179 181 188 193 189 187 193 202 203 197 213 238 254 266 272 283 292 293 291 294 301 300 302 303 297 295 293 290 285 281 278 276 272 273 276 276 277
176 179 184 185 191 194 196 193 200 209 214 214 215 218 225 231 240 255 263 271 279 281 287 292 292 292 293 293 295 295 294 293 291 291 289 284 280 277 274 275 277 276 277
186 190 192 196 203 204 205 210 212 219 223 228 232 237 246 249 250 259 268 275 279 280 282 288 290 290 293 290 292 293 292 288 289 289 288 284 280 278 278 276 277 277 277
203 204 204 207 212 216 218 224 232 228 226 233 241 246 251 255 260 263 269 273 276 280 282 283 286 288 291 289 289 289 291 289 288 287 286 282 281 279 279 277 276 276 278
234 218 216 221 223 226 230 237 233 233 233 242 249 252 255 260 263 267 272 276 278 280 282 285 288 289 293 293 293 290 288 287 286 285 284 281 280 278 278 277 276 276 277
240 233 226 225 232 242 244 242 240 244 246 249 253 256 259 262 266 270 274 276 278 279 282 285 288 289 291 292 294 291 288 288 285 283 282 282 281 281 280 278 275 277 276
248 244 238 235 243 250 249 246 246 251 253 255 257 260 263 268 273 276 277 278 278 279 283 286 288 288 290 294 293 291 290 289 285 285 283 280 280 279 279 278 276 275 275
254 258 250 240 249 255 249 249 253 256 258 261 261 263 265 269 273 278 281 280 279 281 284 287 289 289 290 292 293 293 292 288 285 285 284 281 279 278 279 278 277 277 277
262 263 255 252 257 255 252 255 258 260 262 263 265 265 270 273 276 279 280 282 282 282 282 285 287 287 288 290 290 291 291 290 286 285 283 282 281 280 279 279 277 276 277
270 267 258 262 260 258 261 263 265 263 265 267 268 271 274 275 277 279 281 282 282 284 284 284 285 286 287 288 289 288 289 289 289 287 284 282 281 279 278 278 278 278 278
276 275 270 271 266 262 264 267 268 269 268 270 274 275 276 276 279 280 282 283 284 286 286 285 285 287 288 288 289 288 288 290 289 288 286 283 281 279 278 279 279 280 278
280 278 277 279 275 269 268 271 272 272 271 274 276 277 277 278 280 283 282 283 283 284 286 286 285 287 288 289 289 289 289 290 288 287 286 283 281 282 281 281 280 279 279
278 277 277 277 277 274 274 276 276 275 274 274 274 276 277 279 281 283 283 283 283 283 284 284 286 287 289 290 291 290 289 289 288 286 285 284 282 284 286 283 281 279 279
281 279 280 279 278 281 282 283 280 277 277 278 276 277 278 279 281 282 284 284 285 283 283 284 286 287 289 291 291 290 289 289 289 287 286 286 286 286 284 284 284 282 280
286 281 278 279 280 282 285 287 285 281 279 279 278 278 278 279 280 281 283 284 285 286 286 285 286 287 289 291 290 290 290 291 291 289 287 286 287 288 288 286 285 283 283
286 282 281 282 282 284 286 289 287 284 280 281 281 280 281 281 281 282 284 286 287 288 288 288 288 289 291 292 292 293 293 293 291 290 289 288 288 288 288 287 286 285 285
289 285 284 283 283 285 286 287 288 287 283 281 284 284 283 284 285 284 285 286 287 288 289 289 289 290 291 292 293 294 294 294 293 292 289 289 289 289 288 287 286 287 286
293 288 285 283 282 284 284 285 286 286 285 283 284 286 285 286 286 285 286 288 288 290 291 290 289 289 290 291 292 293 293 293 293 293 291 291 290 291 291 290 289 288 287
295 291 286 285 285 284 284 284 285 284 286 286 286 285 285 286 286 287 288 289 288 289 291 290 290 290 291 292 292 292 292 293 293 293 292 292 292 292 292 292 291 290 289
295 296 292 290 290 287 286 285 285 283 283 286 286 285 285 285 286 288 288 289 288 289 289 289 290 291 292 293 294 294 294 293 293 293 293 293 293 293 293 292 292 291 290
296 297 296 293 292 290 289 289 288 287 286 287 287 286 286 286 287 286 288 288 289 289 289 290 292 293 292 292 292 293 294 294 294 294 294 294 293 294 294 293 291 291 291
297 297 296 295 296 295 292 291 289 287 286 286 287 288 288 289 289 288 290 290 289 290 291 292 292 292 292 291 291 291 292 293 293 294 294 294 294 294 294 292 292 293 293
294 295 295 296 297 297 295 293 291 288 287 288 290 291 290 290 290 290 290 290 290 291 292 292 292 291 291 291 291 292 292 293 293 293 293 294 294 294 294 294 294 294 293
291 291 292 293 295 296 295 294 295 293 290 289 290 291 292 293 293 293 293 293 293 293 292 292 292 292 292 292 292 292 292 292 293 293 293 293 294 294 294 294 293 293 293
Height
5905 5905 5905 5906 5906 5907 5907 5908 5908 5909 5909 5910 5910 5910 5911 5911 5911 5911 5911 5911 5912 5912 5911 5911 5911 5911 5911 5910 5910 5910 5909 5909 5909 5908 5908 5908 5908 5908 5907 5907 5907 5907 5906
5905 5905 5906 5906 5906 5907 5907 5908 5909 5909 5910 5910 5910 5911 5911 5911 5911 5911 5912 5911 5911 5912 5911 5911 5911 5910 5910 5910 5910 5909 5909 5908 5908 5908 5907 5907 5907 5906 5906 5906 5906 5905 5905
5905 5905 5906 5906 5907 5907 5907 5908 5909 5909 5910 5910 5910 5910 5911 5911 5911 5912 5911 5911 5911 5911 5911 5911 5910 5910 5910 5909 5909 5908 5908 5908 5907 5907 5906 5906 5905 5905 5905 5904 5904 5904 5903
5905 5905 5906 5906 5906 5907 5907 5908 5909 5909 5909 5910 5910 5910 5910 5911 5911 5911 5911 5911 5911 5910 5910 5910 5910 5909 5909 5908 5908 5907 5907 5906 5906 5905 5905 5904 5904 5903 5903 5902 5902 5901 5901
5904 5905 5905 5906 5906 5907 5907 5908 5908 5909 5909 5909 5909 5910 5910 5910 5910 5910 5910 5910 5910 5909 5909 5909 5908 5908 5907 5907 5906 5906 5905 5905 5904 5903 5903 5902 5902 5901 5901 5900 5900 5899 5899
5904 5904 5905 5905 5905 5906 5907 5907 5908 5908 5908 5909 5909 5909 5909 5909 5909 5909 5909 5909 5908 5908 5908 5907 5907 5906 5905 5905 5904 5904 5903 5902 5902 5901 5900 5900 5899 5899 5898 5897 5897 5896 5896
5903 5904 5904 5904 5905 5905 5905 5906 5906 5907 5907 5908 5908 5908 5908 5908 5908 5908 5907 5907 5907 5907 5906 5905 5905 5904 5903 5903 5902 5901 5901 5900 5899 5898 5898 5897 5896 5896 5895 5894 5894 5893 5893
5902 5903 5903 5903 5904 5904 5904 5905 5905 5905 5906 5906 5906 5906 5906 5907 5906 5906 5905 5905 5905 5904 5904 5903 5903 5902 5901 5900 5900 5899 5898 5897 5896 5895 5894 5894 5893 5892 5891 5891 5890 5889 5889
5902 5902 5902 5902 5902 5903 5903 5903 5903 5904 5904 5904 5904 5904 5904 5904 5904 5904 5903 5903 5902 5902 5901 5901 5900 5899 5898 5897 5897 5896 5895 5894 5893 5892 5891 5890 5889 5888 5888 5887 5886 5885 5885
5900 5900 5900 5901 5901 5901 5901 5901 5902 5902 5902 5902 5902 5902 5902 5902 5901 5901 5901 5900 5899 5899 5898 5898 5897 5896 5895 5894 5893 5892 5891 5890 5889 5888 5887 5886 5885 5884 5883 5882 5881 5881 5880
5899 5899 5899 5899 5899 5899 5900 5900 5900 5900 5900 5900 5900 5899 5899 5899 5899 5898 5898 5897 5896 5896 5895 5894 5893 5893 5892 5890 5890 5888 5887 5886 5885 5884 5882 5881 5880 5879 5878 5878 5877 5876 5875
5898 5898 5897 5897 5897 5898 5898 5898 5898 5897 5897 5897 5897 5897 5896 5896 5896 5895 5894 5894 5893 5892 5891 5891 5890 5889 5887 5886 5885 5884 5883 5882 5880 5879 5878 5877 5875 5874 5874 5873 5872 5870 5869
5897 5896 5896 5896 5895 5895 5895 5895 5895 5895 5895 5895 5894 5894 5893 5893 5892 5892 5891 5890 5889 5888 5887 5886 5885 5884 5883 5882 5881 5880 5878 5877 5875 5874 5872 5871 5870 5869 5868 5867 5866 5865 5864
5895 5895 5894 5894 5893 5893 5893 5893 5893 5892 5892 5892 5891 5891 5890 5889 5889 5888 5887 5886 5885 5884 5883 5882 5880 5879 5878 5877 5876 5874 5873 5872 5870 5868 5867 5865 5864 5863 5861 5860 5859 5858 5857
5893 5893 5893 5892 5891 5891 5891 5890 5890 5889 5889 5888 5888 5887 5886 5886 5885 5884 5883 5882 5881 5879 5878 5877 5875 5874 5872 5871 5870 5868 5867 5866 5864 5862 5861 5859 5858 5857 5855 5853 5853 5851 5850
5891 5891 5890 5890 5889 5889 5888 5887 5887 5886 5885 5884 5884 5883 5882 5881 5880 5879 5878 5877 5875 5875 5874 5872 5870 5869 5867 5866 5864 5862 5861 5860 5858 5856 5855 5853 5852 5850 5849 5847 5845 5844 5842
5889 5888 5887 5887 5886 5885 5885 5884 5883 5882 5881 5880 5880 5879 5878 5877 5876 5875 5873 5872 5871 5869 5868 5867 5865 5864 5862 5860 5858 5856 5855 5853 5851 5850 5848 5847 5845 5843 5842 5840 5838 5836 5835
5886 5885 5884 5883 5883 5882 5881 5880 5879 5878 5877 5876 5875 5874 5873 5872 5871 5870 5869 5867 5866 5864 5863 5862 5860 5858 5856 5854 5852 5850 5849 5847 5845 5843 5842 5840 5838 5836 5835 5833 5831 5829 5827
5883 5882 5881 5880 5879 5878 5877 5876 5875 5874 5873 5872 5871 5870 5869 5868 5867 5865 5864 5863 5861 5859 5858 5856 5854 5852 5850 5848 5846 5844 5842 5840 5838 5837 5835 5833 5831 5829 5827 5825 5823 5821 5819
5880 5878 5877 5876 5875 5874 5873 5872 5871 5870 5869 5868 5867 5865 5864 5863 5861 5860 5859 5857 5856 5854 5852 5850 5848 5846 5845 5842 5840 5838 5836 5834 5832 5830 5828 5826 5824 5821 5819 5817 5814 5812 5810
5876 5875 5873 5872 5871 5870 5869 5868 5866 5865 5864 5863 5861 5860 5859 5858 5856 5855 5853 5852 5850 5848 5846 5844 5842 5840 5838 5836 5834 5832 5830 5828 5825 5823 5821 5818 5816 5814 5811 5808 5806 5803 5801
5873 5871 5869 5868 5866 5865 5864 5863 5861 5860 5859 5857 5856 5855 5854 5852 5851 5849 5848 5846 5844 5842 5840 5838 5836 5834 5832 5830 5828 5825 5823 5821 5819 5816 5813 5811 5808 5805 5803 5800 5797 5794 5792
5869 5867 5865 5864 5862 5860 5859 5858 5856 5854 5853 5852 5851 5849 5848 5847 5845 5843 5841 5839 5837 5835 5834 5832 5829 5827 5825 5823 5821 5818 5816 5813 5811 5808 5805 5802 5800 5797 5794 5791 5788 5785 5783
5865 5863 5861 5859 5857 5856 5854 5852 5850 5849 5848 5846 5845 5844 5842 5840 5839 5837 5835 5833 5831 5829 5827 5825 5823 5820 5818 5816 5813 5811 5808 5806 5803 5800 5797 5794 5791 5788 5785 5782 5779 5777 5774
5860 5858 5857 5855 5853 5851 5849 5847 5845 5843 5842 5841 5839 5838 5836 5834 5832 5830 5828 5826 5824 5822 5820 5817 5815 5813 5810 5808 5805 5803 5800 5797 5795 5792 5788 5785 5782 5779 5776 5774 5770 5767 5764
5855 5853 5852 5850 5848 5846 5844 5842 5840 5838 5836 5835 5833 5831 5830 5828 5826 5824 5822 5819 5817 5814 5812 5809 5807 5804 5802 5799 5797 5794 5791 5788 5785 5783 5780 5776 5773 5770 5767 5764 5761 5758 5755